Weather History for Vero Beach, FL

Change the Weather History Date:

Saturday, March 22, 2014

  Actual Average Record
Temperature  
Mean Temperature 76 °F 68 °F  
Max Temperature 87 °F 78 °F 90 °F (1977)
Min Temperature 65 °F 58 °F 40 °F (1996)
Degree Days  
Heating Degree Days 0 1  
Month to date heating degree days 13 46  
Since 1 July heating degree days 248 431  
Cooling Degree Days 11 4  
Month to date cooling degree days 84 88  
Year to date cooling degree days 292 227  
Growing Degree Days 28 (Base 50)    
Moisture  
Dew Point 64 °F    
Average Humidity 65    
Maximum Humidity 97    
Minimum Humidity 32    
Precipitation  
Precipitation 0.00 in 0.15 in 2.37 in (1957)
Month to date precipitation 0.40 2.89  
Year to date precipitation 6.95 8.06  
Sea Level Pressure  
Sea Level Pressure 30.03 in    
Wind  
Wind Speed 10 mph (SSW)    
Max Wind Speed 20 mph    
Max Gust Speed 25 mph    
Visibility 10 miles    
Events      
T = Trace of Precipitation, MM = Missing Value Source: NWS Daily Summary

Daily Weather History Graph

Daily Weather History Graph

Search for Another Location

Airport:

Trip Planner

Search our weather history database for the weather conditions in past years. The results will help you decide how hot, cold, wet, or windy it might be!

Date:

Astronomy

Mar. 22, 2014 Rise Set
Actual Time 7:23 AM EDT 7:34 PM EDT
Civil Twilight 6:59 AM EDT 7:57 PM EDT
Nautical Twilight 6:32 AM EDT 8:24 PM EDT
Astronomical Twilight 6:05 AM EDT 8:52 PM EDT
Moon 12:27 AM EDT (3/22) 11:30 AM EDT (3/22)
Length of Visible Light 12h 57m
Length of Day
12h 10m
Waning Gibbous, 65% of the Moon is Illuminated
Mar 22
Waning Gibbous
Mar 23
Last Quarter
Mar 30
New
Apr 7
First Quarter
Apr 15
Full

Hourly Weather History & Observations

Time (EDT) Temp. Heat Index Dew Point Humidity Pressure Visibility Wind Dir Wind Speed Gust Speed Precip Events Conditions
12:53 AM 72.0 °F - 66.9 °F 84% 30.07 in 10.0 mi ESE 10.4 mph - N/A   Scattered Clouds
1:44 AM 72.0 °F - 66.9 °F 84% 30.06 in 10.0 mi SE 9.2 mph - N/A   Mostly Cloudy
1:53 AM 72.0 °F - 66.9 °F 84% 30.06 in 10.0 mi SE 8.1 mph - N/A   Scattered Clouds
2:53 AM 73.0 °F - 68.0 °F 84% 30.04 in 10.0 mi SE 10.4 mph - N/A   Scattered Clouds
3:53 AM 73.0 °F - 69.1 °F 87% 30.03 in 10.0 mi SE 8.1 mph - N/A   Mostly Cloudy
4:09 AM 72.0 °F - 68.0 °F 87% 30.03 in 10.0 mi SSE 8.1 mph - N/A   Scattered Clouds
4:53 AM 71.1 °F - 69.1 °F 93% 30.03 in 10.0 mi SE 8.1 mph - N/A   Scattered Clouds
5:53 AM 70.0 °F - 68.0 °F 93% 30.04 in 10.0 mi SSE 4.6 mph - N/A   Partly Cloudy
6:53 AM 70.0 °F - 66.9 °F 90% 30.05 in 10.0 mi SSE 5.8 mph - N/A   Scattered Clouds
7:53 AM 72.0 °F - 68.0 °F 87% 30.06 in 10.0 mi SSE 6.9 mph - N/A   Scattered Clouds
8:53 AM 75.0 °F - 68.0 °F 79% 30.08 in 10.0 mi SSE 9.2 mph - N/A   Mostly Cloudy
9:53 AM 78.1 °F - 66.9 °F 68% 30.06 in 10.0 mi South 17.3 mph - N/A   Partly Cloudy
10:53 AM 79.0 °F - 66.9 °F 66% 30.07 in 10.0 mi South 16.1 mph 20.7 mph N/A   Scattered Clouds
11:53 AM 81.0 °F 83.8 °F 68.0 °F 65% 30.06 in 10.0 mi South 13.8 mph - N/A   Partly Cloudy
12:53 PM 82.0 °F 84.1 °F 66.0 °F 58% 30.04 in 10.0 mi SW 15.0 mph - N/A   Scattered Clouds
1:53 PM 84.9 °F 85.4 °F 62.1 °F 46% 30.02 in 10.0 mi SSW 19.6 mph - N/A   Scattered Clouds
2:53 PM 84.9 °F 85.0 °F 61.0 °F 44% 29.99 in 10.0 mi SSW 10.4 mph 21.9 mph N/A   Partly Cloudy
3:53 PM 86.0 °F 84.2 °F 54.0 °F 33% 29.97 in 10.0 mi WSW 11.5 mph - N/A   Clear
4:53 PM 84.0 °F 83.8 °F 59.0 °F 43% 29.96 in 10.0 mi WSW 9.2 mph - N/A   Mostly Cloudy
5:53 PM 84.9 °F 85.0 °F 61.0 °F 44% 29.96 in 10.0 mi West 15.0 mph - N/A   Mostly Cloudy
6:53 PM 82.0 °F 82.7 °F 61.0 °F 49% 29.98 in 10.0 mi West 10.4 mph - N/A   Scattered Clouds
7:53 PM 78.1 °F - 61.0 °F 56% 30.01 in 10.0 mi WSW 5.8 mph - N/A   Clear
8:53 PM 75.9 °F - 62.1 °F 62% 30.02 in 10.0 mi WSW 9.2 mph - N/A   Clear
9:53 PM 73.0 °F - 60.1 °F 64% 30.03 in 10.0 mi West 9.2 mph - N/A   Clear
10:53 PM 69.1 °F - 60.1 °F 73% 30.04 in 10.0 mi West 8.1 mph - N/A   Clear
11:53 PM 66.9 °F - 60.1 °F 79% 30.04 in 10.0 mi West 6.9 mph - N/A   Clear